Tracking 17154 objects as of 2-August-2015
HD Live streaming from Space Station

INTELSAT 903

Track INTELSAT 903 now!
INTELSAT 903 is classified as:


NORAD ID: 27403
Int'l Code: 2002-016A
Perigee: 35,779.7 km
Apogee: 35,808.4 km
Inclination: 0.0 °
Period: 1,436.1 minutes
Semi major axis: 42165 km
RCS: 28.8022 m2 (large)
Launch date: March 30, 2002
Source: International Telecommunications Satellite Organization (ITSO)

76 C-band, 22 Ku-band, broadcasting, business services, direct-to-home TV broadcasting, telecommunications, VSAT networks; Atlantic Ocean region.
Your satellite tracking list
Your tracking list is empty





NASA's NSSDC Master Catalog

Two Line Element Set (TLE):
1 27403U 02016A   15213.38786532 -.00000254  00000-0  00000+0 0  9990
2 27403 000.0192 359.0932 0003394 120.2733 295.4315 01.00270733 48811

Source of the keplerian elements: AFSPC

N2YO: 383